Dewpoint
67 68 67 66 67 69 70 67 68 71 72 72 71 70 70 71 71 71 71 72 73 72 71 70 68 67 67 70 70 70 70 69 71 69 68 67 67 70 69 70 70 71 70
65 65 64 67 67 68 66 68 71 71 72 72 72 71 71 72 72 72 72 72 71 72 71 70 70 68 69 69 71 70 70 68 68 68 66 63 66 68 69 70 69 70 70
64 65 64 63 67 67 69 70 71 71 72 72 72 72 73 71 70 71 71 72 73 72 70 70 71 71 70 69 70 71 70 67 70 70 67 62 61 64 68 68 68 67 70
62 62 64 63 60 68 69 70 72 72 72 73 71 70 70 69 70 70 71 71 72 72 71 70 69 72 72 70 71 72 70 70 67 69 71 69 66 64 63 67 67 67 66
60 60 63 66 63 66 68 70 71 72 73 73 72 71 70 70 71 70 68 69 71 72 72 72 72 71 72 71 71 71 70 71 69 68 67 68 66 66 63 60 65 68 69
58 59 62 65 66 67 67 70 71 72 73 73 72 70 70 71 71 71 70 71 73 72 72 72 72 72 72 72 72 72 71 70 71 70 69 66 66 65 65 63 64 65 66
57 57 59 63 64 64 66 69 71 71 73 72 72 71 72 72 71 71 71 71 72 72 73 72 72 72 73 72 72 72 71 72 71 70 70 68 68 69 67 63 62 64 67
57 59 59 59 63 64 67 68 71 71 72 73 72 73 73 73 73 72 73 72 72 71 72 73 73 72 73 73 72 72 71 72 72 71 71 70 70 70 67 64 63 64 65
56 58 62 62 63 64 68 70 71 73 73 72 74 73 74 73 73 73 73 73 72 71 72 72 72 73 73 73 72 72 70 71 71 71 72 71 70 69 69 66 67 65 62
54 56 59 61 63 63 67 71 72 70 65 72 73 74 72 73 73 72 72 72 72 72 72 73 73 72 72 72 71 71 72 71 71 70 70 71 71 70 70 70 68 68 65
54 56 58 61 61 66 67 68 70 72 72 73 73 72 73 73 73 73 72 72 72 72 71 72 72 72 71 72 72 71 70 71 71 71 70 70 69 70 69 68 69 68 68
55 58 59 60 66 68 66 67 65 66 68 69 71 72 72 71 71 71 72 72 72 72 72 71 71 72 72 72 71 71 70 69 70 70 70 70 71 70 70 69 68 68 68
55 57 67 67 67 68 67 66 61 60 63 60 63 63 67 64 63 63 64 65 68 71 71 71 71 71 71 72 72 71 71 71 70 71 70 69 70 69 69 70 69 69 70
56 67 66 63 65 66 66 65 64 64 64 64 65 64 65 65 67 67 67 67 68 68 66 68 70 71 71 71 72 71 71 71 71 71 71 71 70 70 69 69 70 69 69
65 65 64 65 66 64 64 63 64 65 65 65 66 66 67 67 67 67 67 67 67 67 68 68 68 68 68 68 70 71 71 70 70 71 71 71 70 71 70 70 69 70 69
64 64 64 65 65 65 64 65 65 66 66 65 64 65 66 65 65 65 65 65 66 66 66 66 66 67 67 65 65 66 66 67 69 70 70 71 71 71 69 68 68 70 69
63 63 64 65 65 64 64 64 65 65 65 64 64 65 64 64 64 64 64 64 65 66 65 66 66 66 66 65 64 65 64 65 65 66 66 65 65 68 70 70 68 67 66
63 64 64 64 64 64 64 64 64 64 63 62 64 65 65 64 64 64 64 64 64 64 64 65 65 66 66 62 62 63 64 65 65 66 66 66 65 65 66 67 70 70 70
64 64 64 64 63 63 63 61 60 61 63 64 64 63 62 61 61 60 60 61 61 61 61 62 62 63 62 62 61 61 62 64 64 65 65 66 66 64 64 64 64 65 70
62 63 62 61 61 61 61 59 59 62 61 61 61 61 62 60 59 59 60 60 59 59 59 59 61 62 62 61 60 59 61 61 62 63 63 63 61 58 58 60 60 61 62
61 61 62 62 61 60 59 60 61 60 61 61 61 60 59 59 59 59 58 59 57 58 59 61 62 62 60 61 57 57 59 61 61 62 63 64 58 56 56 57 60 60 61
61 61 61 61 62 62 59 61 59 60 59 59 59 58 58 58 57 59 60 60 60 61 61 61 61 62 62 56 54 54 55 58 57 59 62 61 56 55 55 57 58 57 58
61 62 62 61 60 59 59 59 59 59 59 58 56 56 57 57 57 56 56 56 56 56 57 56 56 56 59 52 52 52 52 54 54 57 57 55 53 54 56 56 57 57 59
60 61 61 59 58 59 59 59 59 57 56 55 55 55 55 56 54 54 54 53 55 55 54 54 55 55 57 50 48 48 49 51 51 52 51 52 54 55 57 58 59 60 61
59 59 60 59 58 59 58 58 57 56 55 55 55 56 55 55 54 53 55 56 55 54 53 53 55 53 49 47 46 45 46 47 48 48 48 51 54 55 56 57 59 60 63
58 59 59 58 59 57 57 56 56 55 54 54 54 55 54 54 53 52 53 52 52 49 48 47 49 50 47 44 44 43 43 45 46 47 50 53 54 55 57 58 59 61 62
Lifted_Index
-2 -1 -1 -1 -1 -2 -2 -2 -3 -3 -4 -4 -4 -4 -4 -4 -3 -3 -2 -2 -2 -2 -1 -1 -0 -0 -1 -2 -3 -3 -2 -2 -2 -2 -2 -2 -2 -3 -2 -2 -2 -2 -2
-1 -1 -1 -1 -1 -1 -2 -3 -3 -4 -4 -4 -4 -4 -4 -4 -3 -3 -2 -2 -2 -2 -1 -1 -1 -1 -1 -2 -3 -3 -2 -1 -1 -2 -2 -2 -2 -2 -2 -2 -2 -2 -2
-1 -1 -1 -1 -1 -1 -2 -3 -4 -4 -4 -4 -4 -4 -4 -4 -3 -3 -2 -2 -2 -2 -2 -1 -1 -1 -2 -2 -3 -3 -3 -2 -2 -2 -2 -2 -2 -2 -2 -2 -2 -2 -2
-1 -1 -1 -1 -1 -2 -2 -3 -4 -4 -4 -4 -4 -4 -4 -4 -4 -3 -3 -2 -2 -2 -2 -1 -1 -2 -2 -3 -3 -3 -3 -3 -3 -3 -2 -2 -2 -1 -1 -1 -1 -2 -2
-1 -1 -2 -2 -2 -3 -3 -4 -4 -4 -5 -5 -5 -4 -4 -4 -4 -3 -3 -3 -3 -3 -2 -2 -2 -2 -3 -3 -3 -4 -3 -3 -3 -3 -2 -2 -2 -1 -1 -0 -1 -1 -2
-2 -2 -2 -2 -2 -3 -3 -4 -5 -5 -5 -5 -5 -4 -4 -4 -5 -4 -4 -4 -4 -4 -3 -3 -3 -3 -3 -4 -4 -4 -4 -4 -4 -3 -3 -2 -2 -2 -1 -1 -1 -1 -2
-2 -2 -2 -2 -3 -3 -4 -5 -5 -6 -6 -6 -5 -5 -5 -5 -5 -5 -5 -5 -4 -4 -4 -4 -4 -4 -4 -4 -4 -4 -4 -4 -4 -4 -3 -3 -2 -2 -2 -1 -1 -1 -1
-2 -2 -3 -3 -3 -4 -5 -6 -6 -6 -6 -6 -6 -6 -6 -6 -6 -6 -5 -5 -5 -4 -4 -4 -4 -4 -4 -4 -4 -4 -4 -4 -4 -4 -4 -3 -3 -2 -2 -2 -1 -1 -1
-2 -3 -3 -4 -4 -4 -5 -7 -7 -6 -5 -6 -7 -7 -6 -6 -7 -7 -6 -6 -5 -5 -4 -4 -4 -4 -4 -4 -4 -4 -4 -4 -5 -5 -4 -4 -3 -3 -3 -3 -2 -2 -2
-2 -3 -3 -4 -4 -4 -6 -7 -7 -5 -4 -5 -7 -7 -7 -7 -7 -7 -6 -6 -5 -5 -5 -4 -4 -4 -4 -4 -4 -4 -4 -4 -4 -4 -4 -4 -4 -3 -3 -3 -3 -3 -2
-2 -3 -3 -4 -4 -4 -5 -6 -7 -6 -5 -6 -6 -6 -6 -6 -6 -6 -6 -5 -5 -5 -5 -4 -4 -4 -4 -4 -3 -3 -3 -3 -4 -4 -4 -4 -4 -3 -3 -3 -3 -3 -3
-3 -4 -5 -5 -5 -4 -4 -5 -5 -5 -5 -4 -4 -4 -4 -4 -4 -4 -4 -4 -4 -4 -4 -4 -4 -4 -4 -4 -3 -3 -3 -3 -3 -3 -3 -3 -3 -3 -3 -3 -3 -3 -3
-4 -5 -6 -6 -5 -5 -4 -4 -3 -3 -2 -1 -1 -2 -2 -2 -2 -2 -2 -2 -2 -3 -3 -3 -3 -3 -3 -3 -3 -3 -3 -3 -3 -3 -3 -3 -3 -3 -3 -3 -3 -3 -3
-6 -6 -7 -7 -6 -5 -4 -3 -2 -1 -0 -0 -0 -0 -1 -1 -1 -1 -1 -1 -1 -1 -1 -1 -2 -2 -2 -2 -3 -3 -3 -3 -3 -3 -3 -3 -3 -3 -3 -3 -3 -3 -3
-7 -7 -7 -6 -5 -4 -3 -2 -1 -1 -0 -0 -0 -0 -0 -0 -0 -0 0 0 0 0 0 0 -0 -1 -1 -1 -2 -2 -2 -2 -2 -2 -3 -3 -3 -3 -3 -3 -3 -3 -3
-7 -7 -6 -6 -5 -4 -3 -2 -1 -1 -1 -0 -0 -0 -0 0 0 1 1 1 1 1 1 1 1 0 0 -0 -0 -0 -0 -0 -1 -1 -1 -2 -2 -2 -2 -3 -3 -3 -3
-7 -6 -6 -5 -4 -3 -3 -2 -1 -1 -1 -0 0 0 0 1 1 1 2 2 2 2 2 1 1 1 1 1 1 1 1 1 1 0 0 -0 -0 -1 -1 -2 -3 -3 -3
-6 -6 -5 -4 -4 -3 -2 -1 -1 -1 -0 -0 0 0 1 1 2 2 3 3 3 3 3 2 2 2 2 1 1 1 2 2 2 1 1 1 1 0 0 -0 -1 -2 -3
-5 -5 -4 -4 -3 -2 -2 -1 -0 0 0 0 0 1 1 2 3 4 4 4 5 5 5 4 4 3 3 3 3 2 2 2 2 2 2 1 1 1 1 1 1 -0 -1
-4 -4 -3 -3 -3 -2 -1 -0 0 1 1 1 1 2 3 4 4 5 5 5 6 6 6 6 5 4 4 4 4 4 3 3 3 2 2 2 1 1 2 2 2 1 1
-4 -3 -2 -2 -2 -2 -1 -0 0 1 2 2 3 4 5 5 6 6 6 6 6 6 6 5 5 5 5 5 5 4 4 4 3 3 3 2 2 2 2 2 2 2 2
-3 -3 -2 -2 -2 -2 -1 -0 1 1 2 3 4 5 6 6 6 6 6 6 6 5 5 5 5 4 5 5 5 5 4 4 4 3 3 3 3 3 3 3 3 3 3
-3 -3 -3 -2 -2 -1 -1 0 1 3 4 5 5 6 6 6 7 7 7 7 6 6 6 5 5 5 5 5 5 5 5 5 4 4 4 4 4 4 4 4 4 3 3
-3 -3 -2 -2 -2 -1 0 2 3 4 5 5 6 6 6 6 7 7 7 7 7 7 6 6 6 6 6 6 6 6 6 6 5 5 5 5 5 5 5 5 4 3 3
-3 -2 -2 -2 -1 -0 1 3 4 5 5 5 5 5 6 6 7 7 7 7 7 7 7 7 7 7 7 6 6 6 6 6 6 6 6 5 6 6 5 5 4 3 2
-2 -2 -1 -1 -1 0 2 3 5 5 5 5 5 6 6 6 7 7 7 7 8 8 8 8 8 8 8 7 6 6 6 6 6 6 6 6 6 5 5 4 3 2 2